• In Czech Republic
  • List of Countries
  • For 7 days
  • Water Temperature
  • Satellite Maps
  • Weather Map
  • Weather Widgets
  • user-avatar
    Login

    Hourly Weather Bamenda

    Today, 16 December, Saturday

    Time Temperature Precipitation Wind Pressure Humidity
    00:00 +19°C° 0 mm 1 mps 641 mmHg 69%
    01:00 +19°C° 0 mm 1 mps 640 mmHg 72%
    02:00 +19°C° 0 mm 1 mps 640 mmHg 74%
    03:00 +18°C° 0 mm 1 mps 640 mmHg 76%
    04:00 +18°C° 0 mm 1 mps 640 mmHg 77%
    05:00 +18°C° 0 mm 1 mps 640 mmHg 77%
    06:00 +18°C° 0 mm 1 mps 640 mmHg 77%
    07:00 +18°C° 0 mm 1 mps 641 mmHg 77%
    08:00 +21°C° 0 mm 1 mps 642 mmHg 63%
    09:00 +24°C° 0 mm 2 mps 643 mmHg 49%
    10:00 +27°C° 0 mm 2 mps 644 mmHg 34%
    11:00 +29°C° 0 mm 2 mps 644 mmHg 31%
    12:00 +30°C° 0 mm 2 mps 644 mmHg 27%
    13:00 +31°C° 0 mm 2 mps 643 mmHg 24%
    14:00 +31°C° 0 mm 2 mps 643 mmHg 24%
    15:00 +30°C° 0 mm 2 mps 642 mmHg 24%
    16:00 +30°C° 0 mm 2 mps 642 mmHg 24%
    17:00 +28°C° 0 mm 1 mps 641 mmHg 31%
    18:00 +25°C° 0 mm 1 mps 641 mmHg 37%
    19:00 +21°C° 0 mm 0 mps 640 mmHg 43%
    20:00 +22°C° 0 mm 1 mps 641 mmHg 46%
    21:00 +21°C° 0 mm 1 mps 641 mmHg 50%
    22:00 +21°C° 0 mm 1 mps 641 mmHg 54%
    23:00 +20°C° 0 mm 1 mps 641 mmHg 54%

    Tomorrow, 17 December, Sunday

    Time Temperature Precipitation Wind Pressure Humidity
    00:00 +20°C° 0 mm 1 mps 641 mmHg 54%
    01:00 +19°C° 0 mm 1 mps 641 mmHg 55%
    02:00 +19°C° 0 mm 1 mps 641 mmHg 49%
    03:00 +19°C° 0 mm 1 mps 640 mmHg 44%
    04:00 +19°C° 0 mm 1 mps 640 mmHg 39%
    05:00 +19°C° 0 mm 1 mps 640 mmHg 37%
    06:00 +19°C° 0 mm 1 mps 641 mmHg 35%
    07:00 +19°C° 0 mm 1 mps 641 mmHg 33%
    08:00 +22°C° 0 mm 1 mps 642 mmHg 30%
    09:00 +25°C° 0 mm 2 mps 643 mmHg 26%
    10:00 +28°C° 0 mm 2 mps 644 mmHg 23%
    11:00 +29°C° 0 mm 2 mps 644 mmHg 21%
    12:00 +30°C° 0 mm 2 mps 644 mmHg 20%
    13:00 +32°C° 0 mm 2 mps 644 mmHg 19%
    14:00 +31°C° 0 mm 2 mps 643 mmHg 19%
    15:00 +31°C° 0 mm 2 mps 642 mmHg 20%
    16:00 +30°C° 0 mm 1 mps 642 mmHg 21%
    17:00 +28°C° 0 mm 1 mps 641 mmHg 25%
    18:00 +25°C° 0 mm 1 mps 641 mmHg 30%
    19:00 +23°C° 0 mm 1 mps 640 mmHg 34%
    20:00 +22°C° 0 mm 1 mps 641 mmHg 36%
    21:00 +21°C° 0 mm 1 mps 641 mmHg 38%
    22:00 +21°C° 0 mm 1 mps 642 mmHg 41%
    23:00 +20°C° 0 mm 1 mps 641 mmHg 40%

    Day after tomorrow, 18 December, Monday

    Time Temperature Precipitation Wind Pressure Humidity
    00:00 +20°C° 0 mm 1 mps 641 mmHg 40%
    01:00 +19°C° 0 mm 1 mps 641 mmHg 40%
    02:00 +19°C° 0 mm 1 mps 641 mmHg 38%
    03:00 +19°C° 0 mm 1 mps 640 mmHg 37%
    04:00 +19°C° 0 mm 1 mps 640 mmHg 36%
    05:00 +19°C° 0 mm 1 mps 640 mmHg 36%
    06:00 +19°C° 0 mm 1 mps 641 mmHg 36%
    07:00 +19°C° 0 mm 1 mps 641 mmHg 36%
    08:00 +22°C° 0 mm 1 mps 642 mmHg 31%
    09:00 +25°C° 0 mm 1 mps 644 mmHg 26%
    10:00 +28°C° 0 mm 2 mps 645 mmHg 22%
    11:00 +30°C° 0 mm 1 mps 645 mmHg 21%
    12:00 +31°C° 0 mm 1 mps 644 mmHg 20%
    13:00 +32°C° 0 mm 1 mps 644 mmHg 19%
    14:00 +32°C° 0 mm 1 mps 643 mmHg 20%
    15:00 +31°C° 0 mm 1 mps 642 mmHg 20%
    16:00 +30°C° 0 mm 1 mps 641 mmHg 21%
    17:00 +28°C° 0 mm 1 mps 641 mmHg 27%
    18:00 +25°C° 0 mm 1 mps 640 mmHg 33%
    19:00 +23°C° 0 mm 1 mps 640 mmHg 39%
    20:00 +22°C° 0 mm 1 mps 640 mmHg 44%
    21:00 +21°C° 0 mm 1 mps 641 mmHg 49%
    22:00 +21°C° 0 mm 1 mps 641 mmHg 53%
    23:00 +20°C° 0 mm 1 mps 641 mmHg 60%

    19 December, Tuesday

    Time Temperature Precipitation Wind Pressure Humidity
    00:00 +20°C° 0 mm 1 mps 641 mmHg 66%
    01:00 +19°C° 0 mm 1 mps 640 mmHg 72%
    02:00 +19°C° 0 mm 1 mps 640 mmHg 75%
    03:00 +19°C° 0 mm 1 mps 640 mmHg 78%
    04:00 +19°C° 0 mm 1 mps 640 mmHg 81%
    05:00 +19°C° 0 mm 1 mps 640 mmHg 82%
    06:00 +19°C° 0 mm 1 mps 640 mmHg 83%
    07:00 +19°C° 0 mm 1 mps 640 mmHg 84%
    08:00 +22°C° 0 mm 1 mps 641 mmHg 69%
    09:00 +25°C° 0 mm 1 mps 643 mmHg 54%
    10:00 +28°C° 0 mm 1 mps 644 mmHg 39%
    11:00 +29°C° 0 mm 2 mps 643 mmHg 34%
    12:00 +30°C° 0 mm 2 mps 643 mmHg 30%
    13:00 +32°C° 0 mm 2 mps 643 mmHg 26%
    14:00 +31°C° 0 mm 2 mps 642 mmHg 28%
    15:00 +30°C° 0 mm 2 mps 641 mmHg 29%
    16:00 +29°C° 0 mm 2 mps 640 mmHg 31%
    17:00 +27°C° 0 mm 1 mps 640 mmHg 38%
    18:00 +25°C° 0 mm 1 mps 640 mmHg 44%
    19:00 +23°C° 0 mm 1 mps 640 mmHg 51%
    20:00 +22°C° 0 mm 1 mps 640 mmHg 57%
    21:00 +22°C° 0 mm 1 mps 641 mmHg 62%
    22:00 +21°C° 0 mm 1 mps 641 mmHg 68%
    23:00 +20°C° 0 mm 1 mps 640 mmHg 70%

    20 December, Wednesday

    Time Temperature Precipitation Wind Pressure Humidity
    00:00 +20°C° 0 mm 1 mps 640 mmHg 72%
    01:00 +20°C° 0 mm 1 mps 640 mmHg 75%
    02:00 +20°C° 0 mm 1 mps 640 mmHg 76%
    03:00 +19°C° 0 mm 1 mps 640 mmHg 77%
    04:00 +19°C° 0 mm 1 mps 639 mmHg 78%
    05:00 +19°C° 0 mm 1 mps 640 mmHg 78%
    06:00 +19°C° 0 mm 1 mps 640 mmHg 79%
    07:00 +19°C° 0 mm 1 mps 641 mmHg 79%
    08:00 +22°C° 0 mm 1 mps 642 mmHg 66%
    09:00 +25°C° 0 mm 2 mps 643 mmHg 54%
    10:00 +27°C° 0 mm 2 mps 644 mmHg 41%
    11:00 +28°C° 0 mm 2 mps 643 mmHg 36%
    12:00 +30°C° 0 mm 2 mps 643 mmHg 31%
    13:00 +31°C° 0 mm 2 mps 643 mmHg 26%
    14:00 +31°C° 0 mm 2 mps 642 mmHg 26%
    15:00 +30°C° 0 mm 2 mps 642 mmHg 26%
    16:00 +30°C° 0 mm 2 mps 641 mmHg 26%
    17:00 +28°C° 0 mm 2 mps 641 mmHg 32%
    18:00 +26°C° 0 mm 1 mps 641 mmHg 39%
    19:00 +23°C° 0 mm 1 mps 640 mmHg 46%
    20:00 +23°C° 0 mm 1 mps 641 mmHg 52%
    21:00 +22°C° 0 mm 1 mps 641 mmHg 58%
    22:00 +21°C° 0 mm 1 mps 641 mmHg 64%
    23:00 +21°C° 0 mm 1 mps 641 mmHg 67%

    21 December, Thursday

    Time Temperature Precipitation Wind Pressure Humidity
    00:00 +20°C° 0 mm 1 mps 641 mmHg 70%
    01:00 +20°C° 0 mm 1 mps 640 mmHg 73%
    02:00 +19°C° 0 mm 1 mps 640 mmHg 73%
    03:00 +19°C° 0 mm 1 mps 640 mmHg 73%
    04:00 +19°C° 0 mm 1 mps 640 mmHg 73%
    05:00 +19°C° 0 mm 1 mps 640 mmHg 70%
    06:00 +19°C° 0 mm 1 mps 641 mmHg 67%
    07:00 +19°C° 0 mm 1 mps 641 mmHg 63%
    08:00 +22°C° 0 mm 1 mps 642 mmHg 53%
    09:00 +25°C° 0 mm 1 mps 643 mmHg 43%
    10:00 +27°C° 0 mm 2 mps 644 mmHg 32%
    11:00 +28°C° 0 mm 2 mps 644 mmHg 29%
    12:00 +29°C° 0 mm 3 mps 644 mmHg 26%
    13:00 +31°C° 0 mm 3 mps 643 mmHg 22%
    14:00 +30°C° 0 mm 3 mps 643 mmHg 23%
    15:00 +30°C° 0 mm 3 mps 642 mmHg 23%
    16:00 +30°C° 0 mm 3 mps 641 mmHg 24%
    17:00 +28°C° 0 mm 2 mps 641 mmHg 30%
    18:00 +25°C° 0 mm 1 mps 641 mmHg 37%
    19:00 +23°C° 0 mm 1 mps 641 mmHg 44%
    20:00 +22°C° 0 mm 1 mps 641 mmHg 49%
    21:00 +22°C° 0 mm 1 mps 641 mmHg 54%
    22:00 +21°C° 0 mm 1 mps 641 mmHg 60%
    23:00 +20°C° 0 mm 1 mps 641 mmHg 62%
    Show more